Location: Bailleul
(50.3375°N, 2.8513°E)
Time: 09:50:45
(UTC+00:00)

Uosat 12 SS-18 rocket - Pass Details

Date: 16 June 2021
Orbit: 587 x 1397 km, 64.6° (Epoch: 26 July)

Event Time Altitude Azimuth Distance (km) Brightness Sun altitude
Exits shadow 23:10:41 14° 221° (SW) 1,720 6.0 -15.8°
Maximum altitude 23:14:27 87° 312° (NW) 684 4.2 -15.9°
Drops below altitude 10° 23:19:39 10° 41° (NE) 2,326 7.6 -16.0°
Sets 23:22:19 0° 42° (NE) 3,383 8.5 -16.0°
